TimeEDT,TemperatureF,Dew PointF,Humidity,Sea Level PressureIn,VisibilityMPH,Wind Direction,Wind SpeedMPH,Gust SpeedMPH,PrecipitationIn,Events,Conditions,WindDirDegrees,DateUTC
12:53 AM,66.0,63.0,90,30.08,10.0,East,4.6,-,N/A,,Overcast,100,2013-10-01 04:53:00
1:53 AM,66.0,62.1,87,30.08,10.0,Calm,Calm,-,N/A,,Overcast,0,2013-10-01 05:53:00
2:53 AM,64.0,61.0,90,30.08,10.0,East,3.5,-,N/A,,Mostly Cloudy,90,2013-10-01 06:53:00
3:53 AM,64.0,61.0,90,30.07,10.0,ENE,3.5,-,N/A,,Mostly Cloudy,60,2013-10-01 07:53:00
4:53 AM,64.0,60.1,87,30.07,10.0,ENE,5.8,-,N/A,,Scattered Clouds,60,2013-10-01 08:53:00
5:53 AM,63.0,60.1,90,30.09,10.0,ENE,3.5,-,N/A,,Clear,60,2013-10-01 09:53:00
6:53 AM,63.0,60.1,90,30.10,10.0,NE,3.5,-,N/A,,Mostly Cloudy,50,2013-10-01 10:53:00
7:53 AM,64.0,61.0,90,30.12,10.0,ENE,4.6,-,N/A,,Overcast,60,2013-10-01 11:53:00
8:53 AM,66.0,62.1,87,30.14,10.0,ENE,3.5,-,N/A,,Mostly Cloudy,70,2013-10-01 12:53:00
9:53 AM,70.0,61.0,73,30.14,10.0,East,5.8,-,N/A,,Mostly Cloudy,90,2013-10-01 13:53:00
10:53 AM,77.0,62.1,60,30.15,10.0,East,5.8,-,N/A,,Clear,80,2013-10-01 14:53:00
11:53 AM,80.1,62.1,54,30.14,10.0,Variable,6.9,-,N/A,,Clear,0,2013-10-01 15:53:00
12:53 PM,82.0,61.0,49,30.12,10.0,Variable,6.9,-,N/A,,Scattered Clouds,0,2013-10-01 16:53:00
1:53 PM,84.0,61.0,46,30.10,10.0,NE,6.9,-,N/A,,Partly Cloudy,50,2013-10-01 17:53:00
2:53 PM,84.0,61.0,46,30.08,10.0,North,4.6,-,N/A,,Mostly Cloudy,350,2013-10-01 18:53:00
3:53 PM,84.0,61.0,46,30.06,10.0,ESE,8.1,-,N/A,,Partly Cloudy,120,2013-10-01 19:53:00
4:53 PM,82.9,61.0,47,30.06,10.0,ESE,5.8,-,N/A,,Clear,110,2013-10-01 20:53:00
5:53 PM,82.9,61.0,47,30.06,10.0,ENE,6.9,-,N/A,,Partly Cloudy,70,2013-10-01 21:53:00
6:53 PM,80.1,61.0,52,30.06,10.0,ENE,5.8,-,N/A,,Clear,70,2013-10-01 22:53:00
7:53 PM,73.0,64.9,76,30.07,10.0,Calm,Calm,-,N/A,,Clear,0,2013-10-01 23:53:00
8:53 PM,73.0,64.0,73,30.09,10.0,Calm,Calm,-,N/A,,Clear,0,2013-10-02 00:53:00
9:53 PM,70.0,64.0,81,30.11,10.0,Calm,Calm,-,N/A,,Clear,0,2013-10-02 01:53:00
10:53 PM,69.1,63.0,81,30.12,10.0,Calm,Calm,-,N/A,,Clear,0,2013-10-02 02:53:00
11:53 PM,66.9,63.0,87,30.13,10.0,Calm,Calm,-,N/A,,Clear,0,2013-10-02 03:53:00